DC4AT Weather Reports


Display with metric or nautical units.
time (UTC)temp
F
wind
direction
speed
MPH
gust
MPH
rain 1hr
in
rain 24hr
in
rain mn
in
humidity
%
barometer
mb
20260906152705 69 259 0.0 0.0 0.00 0.00 0.00 56 1025.9
20260906151705 68 259 0.0 0.0 0.00 0.00 0.00 57 1025.9
20260906150705 69 259 0.0 1.0 0.00 0.00 0.00 55 1026.0
20260906145705 69 259 1.0 2.0 0.00 0.00 0.00 55 1026.0
20260906144705 69 65 1.0 2.0 0.00 0.00 0.00 53 1026.2
20260906143705 69 302 2.0 6.0 0.00 0.00 0.00 51 1026.0
20260906142705 69 88 3.0 3.0 0.00 0.00 0.00 54 1026.1
20260906141705 69 32 3.0 8.0 0.00 0.00 0.00 53 1026.2
20260906140705 69 292 2.0 6.0 0.00 0.00 0.00 52 1026.2
20260906135705 69 5 1.0 2.0 0.00 0.00 0.00 53 1026.3
20260906134705 69 261 4.0 9.0 0.00 0.00 0.00 54 1026.3
20260906133706 68 314 3.0 5.0 0.00 0.00 0.00 53 1026.3
20260906132706 68 231 3.0 10.0 0.00 0.00 0.00 52 1026.5
20260906131706 68 261 3.0 8.0 0.00 0.00 0.00 53 1026.7
20260906130706 67 58 2.0 5.0 0.00 0.00 0.00 53 1026.9
20260906125706 66 253 3.0 9.0 0.00 0.00 0.00 53 1026.9
20260906124706 66 198 5.0 10.0 0.00 0.00 0.00 53 1026.9
20260906123706 66 254 5.0 10.0 0.00 0.00 0.00 54 1026.9
20260906122706 66 212 5.0 10.0 0.00 0.00 0.00 54 1027.2
20260906121706 66 246 4.0 9.0 0.00 0.00 0.00 55 1027.4
20260906120706 66 295 2.0 8.0 0.00 0.00 0.00 56 1027.4
20260906115706 65 17 2.0 8.0 0.00 0.00 0.00 55 1027.7
20260906114706 64 269 5.0 8.0 0.00 0.00 0.00 57 1027.9
20260906113706 65 275 6.0 12.0 0.00 0.00 0.00 58 1028.0
20260906112706 65 242 5.0 8.0 0.00 0.00 0.00 56 1028.0
20260906111706 64 242 4.0 8.0 0.00 0.00 0.00 58 1027.9
20260906110706 64 236 5.0 11.0 0.00 0.00 0.00 57 1027.9
20260906105706 65 279 2.0 8.0 0.00 0.00 0.00 57 1027.8
20260906104706 64 155 1.0 4.0 0.00 0.00 0.00 59 1027.8
20260906103706 63 288 3.0 7.0 0.00 0.00 0.00 57 1027.9
20260906102706 63 241 3.0 8.0 0.00 0.00 0.00 56 1028.0
20260906101706 63 324 1.0 3.0 0.00 0.00 0.00 61 1028.0
20260906100706 63 333 2.0 6.0 0.00 0.00 0.00 59 1028.0
20260906095706 62 205 1.0 1.0 0.00 0.00 0.00 63 1028.0
20260906094706 62 234 3.0 7.0 0.00 0.00 0.00 62 1028.1
20260906093706 62 219 1.0 4.0 0.00 0.00 0.00 67 1028.2
20260906092706 61 230 1.0 3.0 0.00 0.00 0.00 68 1028.2
20260906091706 61 347 0.0 3.0 0.00 0.00 0.00 72 1028.2
20260906090706 60 347 0.0 3.0 0.00 0.00 0.00 71 1028.3
20260906085706 61 348 0.0 0.0 0.00 0.00 0.00 72 1028.4
20260906084706 60 323 0.0 1.0 0.00 0.00 0.00 71 1028.4
20260906083706 60 199 0.0 0.0 0.00 0.00 0.00 74 1028.3
20260906082706 59 205 0.0 0.0 0.00 0.00 0.00 75 1028.3
20260906081706 59 206 0.0 0.0 0.00 0.00 0.00 78 1028.3
20260906080706 58 223 0.0 0.0 0.00 0.00 0.00 79 1028.3
20260906075706 58 223 1.0 3.0 0.00 0.00 0.00 81 1028.3
20260906074706 58 132 0.0 3.0 0.00 0.00 0.00 81 1028.2
20260906073706 57 133 0.0 2.0 0.00 0.00 0.00 84 1028.0
20260906072706 56 133 0.0 2.0 0.00 0.00 0.00 85 1028.0
20260906071706 55 142 0.0 3.0 0.00 0.00 0.00 87 1027.8
20260906070706 55 117 0.0 0.0 0.00 0.00 0.00 87 1027.7
20260906065706 54 117 0.0 0.0 0.00 0.00 0.00 87 1027.6
20260906064706 54 117 0.0 0.0 0.00 0.00 0.00 87 1027.8
20260906063706 53 117 0.0 0.0 0.00 0.00 0.00 86 1027.8
20260906062706 52 117 0.0 0.0 0.00 0.00 0.00 86 1027.7
20260906061706 51 117 0.0 0.0 0.00 0.00 0.00 85 1027.7
20260906060706 51 117 0.0 0.0 0.00 0.00 0.00 85 1027.7
20260906055707 50 117 0.0 0.0 0.00 0.00 0.00 84 1027.7
20260906054707 50 117 0.0 0.0 0.00 0.00 0.00 84 1027.6
20260906053707 49 117 0.0 0.0 0.00 0.00 0.00 84 1027.4
20260906052707 49 117 0.0 0.0 0.00 0.00 0.00 85 1027.4
20260906051707 49 117 0.0 0.0 0.00 0.00 0.00 85 1027.4
20260906050707 49 117 0.0 0.0 0.00 0.00 0.00 85 1027.3
20260906045707 49 117 0.0 0.0 0.00 0.00 0.00 86 1027.2
20260906044707 49 117 0.0 0.0 0.00 0.00 0.00 86 1027.2
20260906043707 49 117 0.0 0.0 0.00 0.00 0.00 86 1026.9
20260906042707 49 117 0.0 0.0 0.00 0.00 0.00 86 1026.9
20260906041707 49 117 0.0 0.0 0.00 0.00 0.00 86 1026.8
20260906040707 49 117 0.0 0.0 0.00 0.00 0.00 86 1026.8
20260906035707 50 117 0.0 0.0 0.00 0.00 0.00 86 1026.6
20260906034707 50 117 0.0 0.0 0.00 0.00 0.00 86 1026.7
20260906033707 50 117 0.0 0.0 0.00 0.00 0.00 86 1026.8
20260906032707 50 116 0.0 0.0 0.00 0.00 0.00 87 1026.8
20260906031707 50 105 0.0 0.0 0.00 0.00 0.00 87 1026.6
20260906030707 50 105 0.0 0.0 0.00 0.00 0.00 87 1026.5
20260906025707 50 192 0.0 0.0 0.00 0.00 0.00 87 1026.6
20260906024707 51 213 0.0 0.0 0.00 0.00 0.00 87 1026.5
20260906023707 51 238 0.0 0.0 0.00 0.00 0.00 87 1026.6
20260906022707 51 238 0.0 0.0 0.00 0.00 0.00 87 1026.6
20260906021707 51 205 0.0 4.0 0.00 0.00 0.00 87 1026.6
20260906020707 51 246 0.0 0.0 0.00 0.00 0.00 86 1026.5
20260906015707 52 246 0.0 0.0 0.00 0.00 0.00 87 1026.4
20260906014707 52 246 0.0 0.0 0.00 0.00 0.00 86 1026.2
20260906013707 52 246 0.0 0.0 0.00 0.00 0.00 86 1026.2
20260906012707 52 246 0.0 0.0 0.00 0.00 0.00 86 1026.1
20260906011707 53 246 0.0 0.0 0.00 0.00 0.00 85 1026.1
20260906010707 53 250 0.0 0.0 0.00 0.00 0.00 85 1026.0
20260906005707 53 234 0.0 0.0 0.00 0.00 0.00 85 1026.0
20260906004707 53 234 1.0 5.0 0.00 0.00 0.00 84 1026.0
20260906003707 54 223 1.0 4.0 0.00 0.00 0.00 85 1025.8
20260906002707 54 242 0.0 0.0 0.00 0.00 0.00 84 1026.0
20260906001707 54 233 0.0 0.0 0.00 0.00 0.00 84 1025.7
20260906000707 54 233 0.0 0.0 0.00 0.00 0.00 83 1025.8
20260905235707 54 227 2.0 7.0 0.00 0.00 0.00 83 1025.7
20260905234707 55 236 4.0 7.0 0.00 0.00 0.00 83 1025.5
20260905233707 54 261 3.0 9.0 0.00 0.00 0.00 84 1025.4
20260905232707 54 259 0.0 3.0 0.00 0.00 0.00 84 1025.3
20260905231707 54 290 0.0 0.0 0.00 0.00 0.00 83 1025.4
20260905230707 55 289 0.0 0.0 0.00 0.00 0.00 83 1025.2
20260905225707 55 281 2.0 6.0 0.00 0.00 0.00 82 1025.2
20260905224707 56 269 3.0 7.0 0.00 0.00 0.00 82 1025.0
20260905223708 56 271 4.0 8.0 0.00 0.00 0.00 82 1025.0
20260905222708 56 254 3.0 9.0 0.00 0.00 0.00 81 1024.9
20260905221708 56 249 4.0 9.0 0.00 0.00 0.00 80 1024.9
20260905220708 57 281 5.0 8.0 0.00 0.00 0.00 80 1024.9
20260905215708 57 263 5.0 10.0 0.00 0.00 0.00 80 1024.8
20260905214708 57 234 4.0 11.0 0.00 0.00 0.00 79 1024.8
20260905213708 57 274 4.0 8.0 0.00 0.00 0.00 79 1024.8
20260905212708 57 281 4.0 10.0 0.00 0.00 0.00 79 1024.7
20260905211708 57 216 3.0 5.0 0.00 0.00 0.00 79 1024.6
20260905210708 58 266 3.0 7.0 0.00 0.00 0.00 78 1024.4
20260905205708 58 218 4.0 6.0 0.00 0.00 0.00 78 1024.3
20260905204708 58 273 3.0 8.0 0.00 0.00 0.00 77 1024.2
20260905203708 59 242 4.0 6.0 0.00 0.00 0.00 76 1024.0
20260905202708 59 236 6.0 12.0 0.00 0.00 0.00 75 1024.0
20260905201708 60 253 6.0 11.0 0.00 0.00 0.00 74 1023.9
20260905200708 60 232 7.0 12.0 0.00 0.00 0.00 74 1023.9
20260905195708 60 260 6.0 13.0 0.00 0.00 0.00 74 1023.7
20260905194708 60 229 6.0 12.0 0.00 0.00 0.00 73 1023.7
20260905193708 60 279 5.0 12.0 0.00 0.00 0.00 73 1023.5
20260905192708 60 284 6.0 11.0 0.00 0.00 0.00 72 1023.5
20260905191708 61 260 6.0 13.0 0.00 0.00 0.00 72 1023.3
20260905190708 61 238 9.0 14.0 0.00 0.00 0.00 71 1023.1
20260905185708 61 284 7.0 13.0 0.00 0.00 0.00 71 1023.0
20260905184708 62 272 7.0 11.0 0.00 0.00 0.00 70 1023.1
20260905183708 62 246 7.0 12.0 0.00 0.00 0.00 70 1023.0
20260905182708 62 245 7.0 12.0 0.00 0.00 0.00 69 1022.9
20260905181708 62 249 8.0 14.0 0.00 0.00 0.00 69 1022.8
20260905180708 62 248 8.0 11.0 0.00 0.00 0.00 69 1022.7
20260905175708 63 259 7.0 19.0 0.00 0.00 0.00 69 1022.6
20260905174708 63 238 4.0 9.0 0.00 0.00 0.00 70 1022.5
20260905173708 63 290 6.0 11.0 0.00 0.00 0.00 69 1022.4
20260905172708 63 273 6.0 10.0 0.00 0.01 0.00 68 1022.3
20260905171708 64 254 9.0 14.0 0.00 0.01 0.00 66 1022.1
20260905170708 64 278 9.0 15.0 0.00 0.01 0.00 66 1022.1
20260905165708 64 216 7.0 12.0 0.00 0.01 0.00 68 1022.0
20260905164708 64 260 9.0 15.0 0.00 0.01 0.00 68 1021.8
20260905163708 64 292 10.0 16.0 0.00 0.01 0.00 68 1021.8
20260905162708 64 229 12.0 17.0 0.00 0.06 0.00 67 1021.5
20260905161708 64 234 11.0 22.0 0.00 0.06 0.00 67 1021.4
20260905160708 64 273 12.0 18.0 0.00 0.06 0.00 67 1021.1
20260905155708 64 232 10.0 17.0 0.00 0.06 0.00 68 1021.0
20260905154708 64 222 9.0 14.0 0.00 0.06 0.00 68 1020.9
20260905153708 64 225 8.0 14.0 0.00 0.06 0.00 69 1020.9